Location: ???????
(54.9996°N, 37.9529°E)
Time: 13:54:29
(UTC+00:00)

Cosmos 1975 - Pass Details

Date: 14 April 2024
Orbit: 514 x 533 km, 82.5° (Epoch: 18 May)

Event Time Altitude Azimuth Distance (km) Brightness Sun altitude
Rises 01:15:47 0° 345° (NNW) 2,649 6.6 -10.0°
Reaches altitude 10° 01:17:56 10° 342° (NNW) 1,758 5.6 -9.8°
Maximum altitude 01:21:43 58° 264° (W) 613 2.8 -9.3°
Drops below altitude 10° 01:25:30 10° 184° (S) 1,752 5.1 -8.8°
Sets 01:27:39 0° 181° (S) 2,638 6.0 -8.6°
